TimeEST,TemperatureF,Dew PointF,Humidity,Sea Level PressureIn,VisibilityMPH,Wind Direction,Wind SpeedMPH,Gust SpeedMPH,PrecipitationIn,Events,Conditions,WindDirDegrees,DateUTC
12:17 AM,62.6,60.8,94,30.06,8.0,Calm,Calm,-,0.00,,Mostly Cloudy,0,2012-12-12 05:17:00
12:53 AM,61.0,59.0,93,30.05,7.0,ESE,4.6,-,0.00,,Partly Cloudy,110,2012-12-12 05:53:00
1:09 AM,60.8,59.0,94,30.05,8.0,East,3.5,-,N/A,,Mostly Cloudy,80,2012-12-12 06:09:00
1:53 AM,61.0,59.0,93,30.09,7.0,NW,4.6,-,N/A,,Overcast,320,2012-12-12 06:53:00
2:04 AM,60.8,59.0,94,30.09,7.0,NW,8.1,-,N/A,,Overcast,320,2012-12-12 07:04:00
2:53 AM,57.0,55.0,93,30.09,10.0,ENE,3.5,-,0.00,Rain,Light Rain,60,2012-12-12 07:53:00
3:34 AM,57.2,55.4,94,30.09,9.0,NE,8.1,-,0.00,,Overcast,50,2012-12-12 08:34:00
3:43 AM,57.2,55.4,94,30.09,9.0,NNE,5.8,-,0.00,,Overcast,20,2012-12-12 08:43:00
3:53 AM,57.0,55.9,96,30.10,7.0,North,4.6,-,0.00,,Overcast,10,2012-12-12 08:53:00
4:11 AM,57.2,55.4,94,30.10,3.0,NNW,5.8,-,N/A,,Overcast,340,2012-12-12 09:11:00
4:20 AM,57.2,55.4,94,30.10,2.0,NNE,4.6,-,N/A,,Overcast,20,2012-12-12 09:20:00
4:46 AM,57.2,55.4,94,30.09,3.0,NE,5.8,-,N/A,,Overcast,40,2012-12-12 09:46:00
4:53 AM,57.0,55.9,96,30.09,3.0,NNE,4.6,-,N/A,,Overcast,20,2012-12-12 09:53:00
5:44 AM,55.4,53.6,94,30.11,2.5,NNE,8.1,-,N/A,,Overcast,30,2012-12-12 10:44:00
5:53 AM,54.0,53.1,97,30.12,3.0,NNE,10.4,-,N/A,,Overcast,30,2012-12-12 10:53:00
6:00 AM,53.6,53.6,100,30.12,2.0,NNE,8.1,-,N/A,,Overcast,20,2012-12-12 11:00:00
6:53 AM,52.0,51.1,97,30.14,2.0,NNE,8.1,-,N/A,,Overcast,20,2012-12-12 11:53:00
7:53 AM,51.1,48.9,92,30.17,2.5,NNE,9.2,-,N/A,,Overcast,30,2012-12-12 12:53:00
8:02 AM,51.8,50.0,94,30.16,3.0,NE,9.2,-,N/A,,Overcast,50,2012-12-12 13:02:00
8:53 AM,51.1,48.9,92,30.19,4.0,NNE,6.9,-,N/A,,Overcast,30,2012-12-12 13:53:00
9:13 AM,50.0,48.2,94,30.20,5.0,NE,11.5,-,N/A,,Overcast,40,2012-12-12 14:13:00
9:53 AM,50.0,48.0,93,30.21,5.0,NNE,9.2,-,0.00,,Overcast,20,2012-12-12 14:53:00
10:53 AM,48.9,46.9,93,30.19,8.0,NNE,10.4,20.7,0.00,,Overcast,30,2012-12-12 15:53:00
11:53 AM,48.9,46.0,90,30.18,10.0,NNE,12.7,-,0.00,,Overcast,30,2012-12-12 16:53:00
12:53 PM,48.9,46.9,93,30.17,9.0,NNE,11.5,-,0.00,,Overcast,30,2012-12-12 17:53:00
1:53 PM,48.0,46.0,93,30.15,9.0,NE,11.5,-,0.00,Rain,Light Rain,40,2012-12-12 18:53:00
2:53 PM,48.0,46.0,93,30.16,4.0,NNE,10.4,18.4,0.00,Rain,Light Rain,30,2012-12-12 19:53:00
3:53 PM,46.9,45.0,93,30.19,5.0,North,12.7,20.7,0.08,Rain,Light Rain,10,2012-12-12 20:53:00
4:53 PM,46.0,44.1,93,30.22,5.0,NNE,12.7,18.4,0.04,Rain,Rain,20,2012-12-12 21:53:00
5:06 PM,44.6,42.8,93,30.21,5.0,NNE,13.8,19.6,0.04,Rain,Rain,30,2012-12-12 22:06:00
5:53 PM,45.0,42.1,90,30.20,8.0,NNE,16.1,26.5,0.10,Rain,Light Rain,30,2012-12-12 22:53:00
6:53 PM,45.0,42.1,90,30.22,7.0,NE,16.1,20.7,0.03,Rain,Light Rain,50,2012-12-12 23:53:00
7:34 PM,44.6,42.8,93,30.19,9.0,NE,15.0,20.7,0.01,Rain,Light Rain,50,2012-12-13 00:34:00
7:41 PM,44.6,42.8,93,30.19,8.0,NE,11.5,-,0.01,Rain,Light Rain,40,2012-12-13 00:41:00
7:53 PM,44.1,42.1,93,30.19,9.0,NE,13.8,-,0.01,Rain,Light Rain,40,2012-12-13 00:53:00
8:17 PM,44.6,42.8,93,30.20,10.0,NNE,8.1,18.4,0.00,Rain,Light Rain,20,2012-12-13 01:17:00
8:53 PM,44.1,42.1,93,30.18,8.0,NE,15.0,-,0.03,Rain,Light Rain,40,2012-12-13 01:53:00
9:53 PM,43.0,41.0,93,30.22,4.0,NNE,11.5,17.3,0.03,Rain,Rain,20,2012-12-13 02:53:00
10:53 PM,43.0,41.0,93,30.19,8.0,NNE,12.7,19.6,0.12,Rain,Light Rain,20,2012-12-13 03:53:00
11:45 PM,42.8,41.0,93,30.20,10.0,NNE,11.5,-,0.00,Rain,Light Rain,30,2012-12-13 04:45:00
11:53 PM,43.0,41.0,93,30.19,10.0,NNE,11.5,18.4,0.00,Rain,Light Rain,30,2012-12-13 04:53:00